Flag for Iceland Weather past 2 weeks in Reykjavik, Iceland

43 °F

Passing clouds.

Feels Like: 33 °F
Forecast: 35 / 42 °F
Wind: 25 mph from Southwest

Location: Reykjavik Airport

Current Time: Nov 26, 2015 at 1:39:25 AM

Latest Report: Nov 26, 2015 at 1:00 AM

Visibility: N/A

Pressure: 29.21 "Hg

Humidity: 81%

Dew point: 37 °F

Location of ReykjavikLocation

Historic Weather in Reykjavik — Graph


Reykjavik temperature yesterday

Maximum temperature yesterday: 45 °F (at 7:00 PM)
Minimum temperature yesterday: 37 °F (at 7:00 AM)
Average temperature yesterday: 41 °F

Past Weeks' High & Low Weather Summary

High45 °F (Nov 22, 9:00 PM)100% (Nov 22, 10:00 AM)30.18 "Hg (Nov 22, 10:00 AM)
Low16 °F (Nov 20, 6:00 AM)45% (Nov 17, 12:00 PM)28.91 "Hg (Nov 11, 7:00 AM)
Average35 °F74%29.52 "Hg
* Reported Midnight between Nov 10 and Nov 11 — Midnight between Nov 25 and Nov 26, Reykjavik, Weather by CustomWeather, © 2015

Note: Actual official high and low records may vary slightly from our data, if they occured in-between our weather recording intervals... More about our weather records


Reykjavik weather history for previous 24 hours

Time TempWeatherWind HumidityBarometerVisibility
12:00 AM
Thu, Nov 26
43 °FSprinkles. Passing clouds.23 mph87%29.21 "HgN/A
11:00 PM
Wed, Nov 25
43 °FLight rain. Mostly cloudy.25 mph87%29.24 "HgN/A
10:00 PM43 °FLight rain. Mostly cloudy.23 mph93%29.27 "Hg6 mi
9:00 PM45 °FLight rain. Mostly cloudy.23 mph87%29.30 "HgN/A
8:00 PM45 °FLight rain. Mostly cloudy.23 mph87%29.33 "Hg5 mi
7:00 PM45 °FLight rain. Overcast.21 mph87%29.36 "Hg3 mi
6:00 PM43 °FLight rain. Overcast.15 mph87%29.42 "HgN/A
5:00 PM41 °FLight rain. Overcast.10 mph87%29.47 "HgN/A
4:00 PM39 °FLight rain. Overcast.12 mph87%29.50 "HgN/A
3:00 PM39 °FLight rain. Overcast.9 mph93%29.53 "HgN/A
2:00 PM39 °FDrizzle. Fog.12 mph87%29.56 "Hg2 mi
1:00 PM39 °FMostly cloudy.8 mph81%29.59 "HgN/A
12:00 PM39 °FOvercast.6 mph75%29.62 "HgN/A
11:00 AM39 °FOvercast.5 mph70%29.62 "HgN/A
10:00 AM37 °FOvercast.5 mph75%29.62 "HgN/A
9:00 AM37 °FOvercast.6 mph81%29.62 "HgN/A
8:00 AM37 °FPassing clouds.5 mph75%29.62 "HgN/A
7:00 AM37 °FPartly cloudy.6 mph75%29.62 "HgN/A
6:00 AM41 °FPassing clouds.8 mph66%29.62 "HgN/A
5:00 AM41 °FPassing clouds.9 mph61%29.62 "HgN/A
4:00 AM41 °FPassing clouds.10 mph66%29.59 "HgN/A
3:00 AM41 °FPassing clouds.13 mph66%29.59 "HgN/A
2:00 AM41 °FClear.13 mph66%29.59 "Hg10 mi
1:00 AM41 °FPassing clouds.13 mph70%29.56 "HgN/A
Weather by CustomWeather, © 2015

See weather overviewHow to use our weather pages